Weather History for Weslaco, TX

Change the Weather History Date:

Sunday, December 16, 2012

  Actual Average (KMFE) Record (KMFE)
Temperature  
Mean Temperature 78 °F 62 °F  
Max Temperature 86 °F 72 °F 87 °F (1948)
Min Temperature 70 °F 52 °F 28 °F (1895)
Degree Days  
Heating Degree Days 0 6  
Month to date heating degree days 79  
Since 1 July heating degree days 139  
Cooling Degree Days 13 3  
Month to date cooling degree days 50  
Year to date cooling degree days 4419  
Growing Degree Days 28 (Base 50)    
Moisture  
Dew Point 66 °F    
Average Humidity 70    
Maximum Humidity 85    
Minimum Humidity 49    
Precipitation  
Precipitation 0.00 in 0.04 in 2.93 in (2009)
Month to date precipitation 0.58  
Year to date precipitation 21.59  
Sea Level Pressure  
Sea Level Pressure 29.79 in    
Wind  
Wind Speed 8 mph (SSW)    
Max Wind Speed 14 mph    
Max Gust Speed 20 mph    
Visibility 8 miles    
Events      
T = Trace of Precipitation, MM = Missing Value Source: NWS Daily Summary

Daily Weather History Graph

Daily Weather History Graph

Search for Another Location

Airport:

Trip Planner

Search our weather history database for the weather conditions in past years. The results will help you decide how hot, cold, wet, or windy it might be!

Date:

Astronomy

Dec. 16, 2012 Rise Set
Actual Time 7:12 AM CST 5:43 PM CST
Civil Twilight 6:47 AM CST 6:08 PM CST
Nautical Twilight 6:18 AM CST 6:37 PM CST
Astronomical Twilight 5:50 AM CST 7:05 PM CST
Moon 10:03 AM CST (12/16) 9:39 PM CST (12/16)
Length of Visible Light 11h 21m
Length of Day
10h 30m
Waxing Crescent, 16% of the Moon is Illuminated
Dec 16
Waxing Crescent
Dec 19
First Quarter
Dec 28
Full
Jan 4
Last Quarter
Jan 11
New

Hourly Weather History & Observations

Time (CST) Temp. Heat Index Dew Point Humidity Pressure Visibility Wind Dir Wind Speed Gust Speed Precip Events Conditions
12:15 AM 74.8 °F - 69.8 °F 84% 29.81 in 7.0 mi South 12.7 mph 19.6 mph N/A   Overcast
12:35 AM 75.2 °F - 69.4 °F 82% 29.82 in 7.0 mi South 6.9 mph - N/A   Overcast
12:55 AM 75.2 °F - 69.8 °F 83% 29.82 in 7.0 mi South 8.1 mph - N/A   Overcast
1:15 AM 75.2 °F - 69.6 °F 83% 29.82 in 7.0 mi South 10.4 mph - N/A   Overcast
1:35 AM 74.5 °F - 69.8 °F 85% 29.81 in 7.0 mi South 9.2 mph - N/A   Overcast
1:55 AM 74.7 °F - 69.3 °F 83% 29.81 in 7.0 mi South 10.4 mph - N/A   Overcast
2:15 AM 74.8 °F - 69.1 °F 82% 29.81 in 7.0 mi South 11.5 mph 19.6 mph N/A   Overcast
2:55 AM 74.5 °F - 68.5 °F 82% 29.79 in 7.0 mi South 10.4 mph 17.3 mph N/A   Overcast
3:15 AM 74.3 °F - 68.7 °F 83% 29.78 in 7.0 mi South 8.1 mph - N/A   Overcast
3:35 AM 74.3 °F - 68.5 °F 82% 29.79 in 7.0 mi South 8.1 mph - N/A   Overcast
3:55 AM 73.8 °F - 68.5 °F 84% 29.79 in 7.0 mi South 5.8 mph - N/A   Overcast
4:15 AM 73.8 °F - 68.4 °F 83% 29.78 in 7.0 mi South 9.2 mph - N/A   Overcast
4:35 AM 73.6 °F - 68.4 °F 84% 29.79 in 7.0 mi South 6.9 mph - N/A   Overcast
4:55 AM 73.6 °F - 68.2 °F 83% 29.78 in 7.0 mi South 8.1 mph - N/A   Overcast
5:15 AM 73.6 °F - 68.2 °F 83% 29.77 in 7.0 mi South 11.5 mph 18.4 mph N/A   Overcast
5:35 AM 73.9 °F - 68.2 °F 82% 29.78 in 7.0 mi South 9.2 mph - N/A   Overcast
5:55 AM 73.9 °F - 68.4 °F 83% 29.78 in 7.0 mi South 6.9 mph - N/A   Overcast
6:15 AM 73.9 °F - 68.5 °F 83% 29.78 in 7.0 mi South 8.1 mph - N/A   Overcast
6:35 AM 74.3 °F - 68.5 °F 82% 29.80 in 7.0 mi SSW 8.1 mph - N/A   Overcast
7:15 AM 74.3 °F - 68.0 °F 81% 29.80 in 7.0 mi SSW 13.8 mph 18.4 mph N/A   Overcast
7:35 AM 74.3 °F - 68.0 °F 81% 29.81 in 7.0 mi South 12.7 mph - N/A   Overcast
7:55 AM 74.3 °F - 68.0 °F 81% 29.83 in 5.0 mi SSW 11.5 mph - N/A   Haze
8:35 AM 73.9 °F - 67.1 °F 79% 29.84 in 5.0 mi South 9.2 mph - N/A   Haze
8:55 AM 75.0 °F - 67.1 °F 76% 29.84 in 5.0 mi South 11.5 mph - N/A   Haze
9:15 AM 76.1 °F - 66.4 °F 72% 29.84 in 5.0 mi South 12.7 mph 16.1 mph N/A   Haze
9:35 AM 75.9 °F - 66.4 °F 72% 29.85 in 7.0 mi SSW 10.4 mph 16.1 mph N/A   Mostly Cloudy
9:55 AM 76.6 °F - 66.4 °F 70% 29.85 in 7.0 mi SSW 10.4 mph - N/A   Scattered Clouds
10:15 AM 79.5 °F - 66.7 °F 65% 29.85 in 7.0 mi SSW 5.8 mph - N/A   Mostly Cloudy
10:35 AM 78.8 °F - 66.4 °F 66% 29.85 in 7.0 mi South 5.8 mph - N/A   Mostly Cloudy
10:55 AM 81.3 °F 83.6 °F 66.6 °F 61% 29.85 in 7.0 mi West 6.9 mph - N/A   Scattered Clouds
11:15 AM 80.4 °F 82.6 °F 66.4 °F 62% 29.84 in 7.0 mi West 5.8 mph - N/A   Mostly Cloudy
11:35 AM 79.7 °F - 66.6 °F 64% 29.83 in 7.0 mi WSW 4.6 mph - N/A   Overcast
11:55 AM 79.2 °F - 66.7 °F 66% 29.82 in 5.0 mi NW 4.6 mph - N/A   Haze
12:15 PM 80.4 °F 82.7 °F 66.7 °F 63% 29.81 in 5.0 mi West 3.5 mph - N/A   Haze
12:35 PM 80.8 °F 83.1 °F 66.6 °F 62% 29.78 in 5.0 mi WSW 3.5 mph - N/A   Haze
12:55 PM 81.5 °F 83.7 °F 66.6 °F 60% 29.76 in 5.0 mi Calm Calm - N/A   Haze
1:15 PM 83.8 °F 86.3 °F 66.6 °F 56% 29.75 in 7.0 mi SSW 3.5 mph - N/A   Clear
1:35 PM 84.7 °F 87.1 °F 66.6 °F 54% 29.74 in 5.0 mi SSE 6.9 mph - N/A   Haze
1:55 PM 86.2 °F 88.4 °F 65.8 °F 51% 29.72 in 5.0 mi SSE 6.9 mph - N/A   Haze
2:15 PM 85.6 °F 87.6 °F 65.5 °F 51% 29.73 in 7.0 mi SSW 5.8 mph - N/A   Clear
2:35 PM 86.0 °F 87.9 °F 65.1 °F 50% 29.72 in 7.0 mi South 8.1 mph - N/A   Clear
2:55 PM 86.2 °F 88.2 °F 65.3 °F 50% 29.72 in 7.0 mi SSW 4.6 mph - N/A   Clear
3:15 PM 85.6 °F 87.4 °F 65.3 °F 50% 29.71 in 7.0 mi SSW 3.5 mph - N/A   Scattered Clouds
3:35 PM 85.6 °F 87.1 °F 64.8 °F 49% 29.72 in 7.0 mi SSW 3.5 mph - N/A   Scattered Clouds
3:55 PM 85.5 °F 87.1 °F 65.1 °F 50% 29.73 in 7.0 mi SW 4.6 mph - N/A   Mostly Cloudy
4:15 PM 85.3 °F 87.1 °F 65.5 °F 51% 29.73 in 7.0 mi West 3.5 mph - N/A   Mostly Cloudy
4:35 PM 83.3 °F 85.3 °F 65.8 °F 55% 29.72 in 7.0 mi WNW 3.5 mph - N/A   Scattered Clouds
4:55 PM 83.3 °F 85.3 °F 65.7 °F 55% 29.73 in 10.0 mi NW 6.9 mph - N/A   Clear
5:15 PM 82.0 °F 83.9 °F 65.3 °F 57% 29.74 in 7.0 mi NNW 6.9 mph - N/A   Clear
5:35 PM 80.6 °F 82.4 °F 64.9 °F 59% 29.75 in 10.0 mi NW 8.1 mph - N/A   Clear
5:55 PM 78.8 °F - 64.8 °F 62% 29.75 in 10.0 mi NW 4.6 mph - N/A   Clear
6:15 PM 77.5 °F - 64.6 °F 64% 29.76 in 10.0 mi WNW 3.5 mph - N/A   Clear
6:35 PM 77.4 °F - 64.6 °F 65% 29.77 in 10.0 mi WNW 4.6 mph - N/A   Clear
6:55 PM 75.7 °F - 64.4 °F 68% 29.77 in 10.0 mi WNW 3.5 mph - N/A   Clear
7:15 PM 74.8 °F - 64.2 °F 69% 29.77 in 10.0 mi Calm Calm - N/A   Clear
7:35 PM 75.6 °F - 64.4 °F 68% 29.78 in 10.0 mi Calm Calm - N/A   Clear
7:55 PM 73.6 °F - 63.7 °F 71% 29.79 in 10.0 mi Calm Calm - N/A   Clear
8:15 PM 72.9 °F - 64.4 °F 75% 29.80 in 10.0 mi SSE 3.5 mph - N/A   Clear
8:35 PM 77.0 °F - 64.6 °F 65% 29.81 in 10.0 mi Calm Calm - N/A   Mostly Cloudy
8:55 PM 76.1 °F - 64.4 °F 67% 29.81 in 10.0 mi Calm Calm - N/A   Mostly Cloudy
9:15 PM 75.2 °F - 63.9 °F 68% 29.81 in 10.0 mi ENE 5.8 mph - N/A   Scattered Clouds
9:35 PM 74.5 °F - 64.0 °F 70% 29.81 in 10.0 mi ENE 4.6 mph - N/A   Clear
9:55 PM 74.1 °F - 63.9 °F 70% 29.82 in 10.0 mi Calm Calm - N/A   Clear
10:15 PM 72.3 °F - 63.7 °F 74% 29.83 in 10.0 mi NNW 3.5 mph - N/A   Clear
10:35 PM 71.8 °F - 63.5 °F 75% 29.84 in 10.0 mi NNW 5.8 mph - N/A   Clear
10:55 PM 72.0 °F - 63.1 °F 74% 29.85 in 10.0 mi NNW 3.5 mph - N/A   Clear
11:15 PM 71.6 °F - 62.8 °F 74% 29.85 in 10.0 mi Calm Calm - N/A   Clear
11:35 PM 70.9 °F - 63.0 °F 76% 29.85 in 10.0 mi NNW 3.5 mph - N/A   Clear
11:55 PM 70.7 °F - 62.8 °F 76% 29.85 in 10.0 mi NNW 4.6 mph - N/A   Clear